Brownsville, TX

12:27 PM CST on February 13, 2016 (GMT -0600)
Brownsville-South Padre I International

Weather History for KBRO - January, 2013

Change the Weather History Date:

Tuesday, January 1, 2013

  Actual Average Record
Temperature  
Mean Temperature 64 °F 60 °F  
Max Temperature 73 °F 70 °F 83 °F (1955)
Min Temperature 55 °F 51 °F 18 °F (1881)
Degree Days  
Heating Degree Days 1 6  
Month to date heating degree days 1 6  
Since 1 July heating degree days 81 225  
Cooling Degree Days 0 2  
Month to date cooling degree days 0 2  
Year to date cooling degree days 0 2  
Growing Degree Days 14 (Base 50)    
Moisture  
Dew Point 59 °F    
Average Humidity 86    
Maximum Humidity 93    
Minimum Humidity 79    
Precipitation  
Precipitation 0.04 in 0.03 in 0.75 in (1905)
Month to date precipitation 0.04 0.03  
Year to date precipitation 0.04 0.03  
Sea Level Pressure  
Sea Level Pressure 30.03 in    
Wind  
Wind Speed 9 mph (NW)    
Max Wind Speed 20 mph    
Max Gust Speed 29 mph    
Visibility 10 miles    
Events Rain    
T = Trace of Precipitation, MM = Missing Value Source: NWS Daily Summary

Daily Weather History Graph

Daily Weather History Graph

Search for Another Location

Airport or City:

Trip Planner

Search our weather history database for the weather conditions in past years. The results will help you decide how hot, cold, wet, or windy it might be!

Date:

Astronomy

Jan. 01, 2013 Rise Set
Actual Time 7:16 AM CST 5:50 PM CST
Civil Twilight 6:51 AM CST 6:15 PM CST
Nautical Twilight 6:23 AM CST 6:44 PM CST
Astronomical Twilight 5:54 AM CST 7:12 PM CST
Moon 9:54 PM CST (1/1) 9:54 AM CST (1/1)
Length of Visible Light 11h 23m
Length of Day
10h 33m
Waning Gibbous, 83% of the Moon is Illuminated
Jan 1
Waning Gibbous
Jan 4
Last Quarter
Jan 11
New
Jan 18
First Quarter
Jan 26
Full

Hourly Weather History & Observations

Time (CST) Temp. Dew Point Humidity Pressure Visibility Wind Dir Wind Speed Gust Speed Precip Events Conditions
12:21 AM 71.6 °F 66.2 °F 83% 29.94 in 10.0 mi SSW 11.5 mph - N/A   Overcast
12:32 AM 71.6 °F 66.2 °F 83% 29.94 in 10.0 mi SSW 9.2 mph - N/A   Overcast
12:44 AM 71.6 °F 66.2 °F 83% 29.94 in 10.0 mi South 10.4 mph - N/A   Mostly Cloudy
12:53 AM 72.0 °F 66.0 °F 81% 29.93 in 10.0 mi South 10.4 mph - N/A   Mostly Cloudy
1:53 AM 72.0 °F 66.9 °F 84% 29.92 in 10.0 mi South 9.2 mph - N/A   Mostly Cloudy
2:53 AM 72.0 °F 66.9 °F 84% 29.91 in 10.0 mi South 10.4 mph - N/A   Partly Cloudy
3:53 AM 71.1 °F 66.0 °F 84% 29.92 in 10.0 mi South 5.8 mph - N/A   Partly Cloudy
4:53 AM 69.1 °F 66.0 °F 90% 29.92 in 10.0 mi Calm Calm - N/A   Partly Cloudy
5:53 AM 69.1 °F 66.0 °F 90% 29.93 in 10.0 mi Calm Calm - N/A   Mostly Cloudy
6:13 AM 69.8 °F 66.2 °F 88% 29.93 in 10.0 mi Calm Calm - N/A   Mostly Cloudy
6:53 AM 68.0 °F 66.0 °F 93% 29.94 in 10.0 mi Calm Calm - N/A   Mostly Cloudy
7:53 AM 70.0 °F 66.9 °F 90% 29.97 in 10.0 mi Calm Calm - N/A   Mostly Cloudy
8:53 AM 70.0 °F 66.0 °F 87% 29.99 in 10.0 mi WNW 8.1 mph - 0.00 in   Partly Cloudy
9:37 AM 64.4 °F 60.8 °F 88% 30.02 in 10.0 mi WNW 11.5 mph - N/A   Partly Cloudy
9:53 AM 63.0 °F 59.0 °F 87% 30.02 in 10.0 mi WNW 13.8 mph - N/A   Partly Cloudy
10:53 AM 62.1 °F 57.9 °F 86% 30.03 in 10.0 mi NW 13.8 mph - 0.00 in Rain Light Rain
11:06 AM 62.6 °F 59.0 °F 88% 30.04 in 10.0 mi NW 10.4 mph - 0.00 in   Mostly Cloudy
11:21 AM 62.6 °F 59.0 °F 88% 30.04 in 10.0 mi NW 9.2 mph - 0.00 in   Mostly Cloudy
11:34 AM 62.6 °F 59.0 °F 88% 30.03 in 10.0 mi WNW 10.4 mph - 0.00 in   Overcast
11:53 AM 63.0 °F 59.0 °F 87% 30.02 in 10.0 mi NW 11.5 mph - 0.00 in   Overcast
12:53 PM 63.0 °F 60.1 °F 90% 30.01 in 9.0 mi NW 11.5 mph 18.4 mph N/A   Overcast
1:15 PM 62.6 °F 60.8 °F 94% 30.00 in 8.0 mi NW 11.5 mph - N/A   Overcast
1:53 PM 62.1 °F 60.1 °F 93% 30.01 in 7.0 mi North 17.3 mph 24.2 mph 0.00 in Rain Light Rain
2:53 PM 59.0 °F 55.9 °F 90% 30.02 in 10.0 mi North 13.8 mph 25.3 mph 0.00 in Rain Light Rain
3:01 PM 59.0 °F 55.4 °F 88% 30.03 in 10.0 mi North 13.8 mph 25.3 mph 0.00 in Rain Light Rain
3:53 PM 60.1 °F 55.0 °F 83% 30.03 in 10.0 mi North 12.7 mph 20.7 mph 0.00 in   Overcast
4:10 PM 60.8 °F 55.4 °F 82% 30.04 in 10.0 mi North 15.0 mph 21.9 mph N/A   Overcast
4:31 PM 60.8 °F 53.6 °F 77% 30.05 in 10.0 mi North 15.0 mph 21.9 mph N/A   Overcast
4:53 PM 59.0 °F 54.0 °F 83% 30.05 in 10.0 mi North 12.7 mph 21.9 mph N/A   Overcast
5:49 PM 57.2 °F 53.6 °F 88% 30.06 in 10.0 mi North 15.0 mph 21.9 mph 0.00 in Rain Light Rain
5:53 PM 57.9 °F 54.0 °F 87% 30.06 in 10.0 mi North 15.0 mph 21.9 mph 0.00 in Rain Light Rain
6:45 PM 57.2 °F 53.6 °F 88% 30.09 in 10.0 mi North 10.4 mph 19.6 mph 0.00 in Rain Light Rain
6:53 PM 57.0 °F 54.0 °F 89% 30.09 in 10.0 mi North 12.7 mph 18.4 mph 0.00 in Rain Light Rain
7:53 PM 55.9 °F 54.0 °F 93% 30.13 in 10.0 mi NNW 10.4 mph - 0.03 in Rain Light Rain
8:53 PM 55.9 °F 53.1 °F 90% 30.14 in 10.0 mi NNW 11.5 mph - 0.01 in   Overcast
9:53 PM 55.9 °F 52.0 °F 87% 30.15 in 10.0 mi NW 9.2 mph - 0.00 in   Overcast
10:25 PM 55.4 °F 51.8 °F 88% 30.15 in 10.0 mi NNW 10.4 mph - 0.00 in Rain Light Rain
10:46 PM 55.4 °F 51.8 °F 88% 30.14 in 10.0 mi NNW 9.2 mph - 0.00 in Rain Light Rain
10:53 PM 55.0 °F 51.1 °F 86% 30.14 in 10.0 mi NNW 8.1 mph - 0.00 in   Overcast
11:12 PM 55.4 °F 51.8 °F 88% 30.13 in 10.0 mi NNW 6.9 mph - N/A   Overcast
11:53 PM 55.0 °F 51.1 °F 86% 30.14 in 10.0 mi NW 9.2 mph - 0.00 in Rain Light Rain